Weather reports worldwide

Advertisment
Capo Frasca, Italy (16539): temperature & dewpoint: 13.01.2021 06:00:00 - 19.01.2021 06:00:00 (CET)Capo Frasca, Italy (16539): wind speed: 13.01.2021 06:00:00 - 19.01.2021 06:00:00 (CET)Capo Frasca, Italy (16539): wind direction: 13.01.2021 06:00:00 - 19.01.2021 06:00:00 (CET)Capo Frasca, Italy (16539): reduced air pressure: 13.01.2021 06:00:00 - 19.01.2021 06:00:00 (CET)Capo Frasca, Italy (16539): visibility: 13.01.2021 06:00:00 - 19.01.2021 06:00:00 (CET)
Date & Time tt [°C] td [°C] ff [km/h] ff [kn] dd ppp [hPa] vv [km]
19.01.2021 06:00:00 - - - - - - -
19.01.2021 05:00:00 - - - - - - -
19.01.2021 04:00:00 - - - - - - -
19.01.2021 03:00:00 - - - - - - -
19.01.2021 02:00:00 - - - - - - -
19.01.2021 01:00:00 - - - - - - -
19.01.2021 00:00:00 - - - - - - -
18.01.2021 23:00:00 - - - - - - -
18.01.2021 22:00:00 - - - - - - -
18.01.2021 21:00:00 - - - - - - -
18.01.2021 20:00:00 - - - - - - -
18.01.2021 19:00:00 10,2 8,3 11 6 NW 1024,6 20
18.01.2021 18:00:00 - - - - - - -
18.01.2021 17:00:00 - - - - - - -
18.01.2021 16:00:00 11,8 9,5 8 4 WSW 1024,1 25
18.01.2021 15:00:00 - - - - - - -
18.01.2021 14:00:00 - - - - - - -
18.01.2021 13:00:00 11,4 7,5 8 4 WNW 1024,2 25
18.01.2021 12:00:00 - - - - - - -
18.01.2021 11:00:00 - - - - - - -
18.01.2021 10:00:00 9,4 7,0 5 3 E 1023,6 25
18.01.2021 09:00:00 - - - - - - -
18.01.2021 08:00:00 - - - - - - -
18.01.2021 07:00:00 8,2 6,7 5 3 ENE 1021,5 20
18.01.2021 06:00:00 - - - - - - -
18.01.2021 05:00:00 - - - - - - -
18.01.2021 04:00:00 - - - - - - -
18.01.2021 03:00:00 - - - - - - -
18.01.2021 02:00:00 - - - - - - -
18.01.2021 01:00:00 - - - - - - -
18.01.2021 00:00:00 - - - - - - -
17.01.2021 23:00:00 - - - - - - -
17.01.2021 22:00:00 - - - - - - -
17.01.2021 21:00:00 - - - - - - -
17.01.2021 20:00:00 - - - - - - -
17.01.2021 19:00:00 12,0 10,2 34 18 NW 1017,0 20
17.01.2021 18:00:00 - - - - - - -
17.01.2021 17:00:00 - - - - - - -
17.01.2021 16:00:00 12,8 11,2 34 18 NW 1017,5 18
17.01.2021 15:00:00 - - - - - - -
17.01.2021 14:00:00 - - - - - - -
17.01.2021 13:00:00 12,8 10,9 35 19 NW 1018,9 18
17.01.2021 12:00:00 - - - - - - -
17.01.2021 11:00:00 - - - - - - -
17.01.2021 10:00:00 12,0 10,2 35 19 WNW 1019,5 18
17.01.2021 09:00:00 - - - - - - -
17.01.2021 08:00:00 - - - - - - -
17.01.2021 07:00:00 11,2 7,3 26 14 NNW 1020,6 20
17.01.2021 06:00:00 - - - - - - -
17.01.2021 05:00:00 - - - - - - -
17.01.2021 04:00:00 - - - - - - -
17.01.2021 03:00:00 - - - - - - -
17.01.2021 02:00:00 - - - - - - -
17.01.2021 01:00:00 - - - - - - -
17.01.2021 00:00:00 - - - - - - -
16.01.2021 23:00:00 - - - - - - -
16.01.2021 22:00:00 - - - - - - -
16.01.2021 21:00:00 - - - - - - -
16.01.2021 20:00:00 - - - - - - -
16.01.2021 19:00:00 10,2 8,3 15 8 N 1020,5 20
16.01.2021 18:00:00 - - - - - - -
16.01.2021 17:00:00 - - - - - - -
16.01.2021 16:00:00 11,2 7,1 21 11 N 1018,3 25
16.01.2021 15:00:00 - - - - - - -
16.01.2021 14:00:00 - - - - - - -
16.01.2021 13:00:00 11,0 6,9 13 7 NE 1018,4 25
16.01.2021 12:00:00 - - - - - - -
16.01.2021 11:00:00 - - - - - - -
16.01.2021 10:00:00 9,8 7,4 21 11 ENE 1017,1 20
16.01.2021 09:00:00 - - - - - - -
16.01.2021 08:00:00 - - - - - - -
16.01.2021 07:00:00 9,2 7,2 0 0 N 1015,0 15
16.01.2021 06:00:00 - - - - - - -
16.01.2021 05:00:00 - - - - - - -
16.01.2021 04:00:00 - - - - - - -
16.01.2021 03:00:00 - - - - - - -
16.01.2021 02:00:00 - - - - - - -
16.01.2021 01:00:00 - - - - - - -
16.01.2021 00:00:00 - - - - - - -
15.01.2021 23:00:00 - - - - - - -
15.01.2021 22:00:00 - - - - - - -
15.01.2021 21:00:00 - - - - - - -
15.01.2021 20:00:00 - - - - - - -
15.01.2021 19:00:00 10,6 8,5 29 16 NNW 1014,5 20
15.01.2021 18:00:00 - - - - - - -
15.01.2021 17:00:00 - - - - - - -
15.01.2021 16:00:00 11,4 9,3 34 18 NNW 1013,5 18
15.01.2021 15:00:00 - - - - - - -
15.01.2021 14:00:00 - - - - - - -
15.01.2021 13:00:00 12,0 9,5 35 19 NNW 1013,5 18
15.01.2021 12:00:00 - - - - - - -
15.01.2021 11:00:00 - - - - - - -
15.01.2021 10:00:00 11,6 9,0 34 18 NNW 1014,2 18
15.01.2021 09:00:00 - - - - - - -
15.01.2021 08:00:00 - - - - - - -
15.01.2021 07:00:00 11,4 9,0 35 19 NNW 1014,2 20
15.01.2021 06:00:00 - - - - - - -
15.01.2021 05:00:00 - - - - - - -
15.01.2021 04:00:00 - - - - - - -
15.01.2021 03:00:00 - - - - - - -
15.01.2021 02:00:00 - - - - - - -
15.01.2021 01:00:00 - - - - - - -
15.01.2021 00:00:00 - - - - - - -
14.01.2021 23:00:00 - - - - - - -
14.01.2021 22:00:00 - - - - - - -
14.01.2021 21:00:00 - - - - - - -
14.01.2021 20:00:00 - - - - - - -
14.01.2021 19:00:00 11,2 9,0 29 16 NNW 1015,6 10
14.01.2021 18:00:00 - - - - - - -
14.01.2021 17:00:00 - - - - - - -
14.01.2021 16:00:00 11,6 9,4 26 14 NW 1016,3 10
14.01.2021 15:00:00 - - - - - - -
14.01.2021 14:00:00 - - - - - - -
14.01.2021 13:00:00 11,6 9,5 29 16 NW 1017,9 10
14.01.2021 12:00:00 - - - - - - -
14.01.2021 11:00:00 - - - - - - -
14.01.2021 10:00:00 12,0 9,7 26 14 NW 1018,3 20
14.01.2021 09:00:00 - - - - - - -
14.01.2021 08:00:00 - - - - - - -
14.01.2021 07:00:00 11,6 9,5 26 14 NW 1018,9 20
14.01.2021 06:00:00 - - - - - - -
14.01.2021 05:00:00 - - - - - - -
14.01.2021 04:00:00 - - - - - - -
14.01.2021 03:00:00 - - - - - - -
14.01.2021 02:00:00 - - - - - - -
14.01.2021 01:00:00 - - - - - - -
14.01.2021 00:00:00 - - - - - - -
13.01.2021 23:00:00 - - - - - - -
13.01.2021 22:00:00 - - - - - - -
13.01.2021 21:00:00 - - - - - - -
13.01.2021 20:00:00 - - - - - - -
13.01.2021 19:00:00 12,0 9,9 24 13 NW 1019,7 12
13.01.2021 18:00:00 - - - - - - -
13.01.2021 17:00:00 - - - - - - -
13.01.2021 16:00:00 12,0 10,1 29 16 NNW 1019,4 15
13.01.2021 15:00:00 - - - - - - -
13.01.2021 14:00:00 - - - - - - -
13.01.2021 13:00:00 12,0 9,9 22 12 NNW 1020,1 12
13.01.2021 12:00:00 - - - - - - -
13.01.2021 11:00:00 - - - - - - -
13.01.2021 10:00:00 11,0 8,9 28 15 N 1019,1 8
13.01.2021 09:00:00 - - - - - - -
13.01.2021 08:00:00 - - - - - - -
13.01.2021 07:00:00 10,2 8,3 34 18 NNW 1018,5 12
13.01.2021 06:00:00 - - - - - - -

tt = temperature
td = dewpoint
ff = wind speed
dd = wind direction
ppp = reduced air pressure
vv = visibility

Next stations